Location: Howard City Library
(37.4684°N, 96.2639°W)
Time: 02:41:44
(UTC+00:00)

CZ-4B R/B - Pass Details

Date: 18 February 2020
Orbit: 486 x 652 km, 97.9° (Epoch: 03 April)

Event Time Altitude Azimuth Distance (km) Brightness Sun altitude
Rises 11:40:49 0° 2° (N) 2,616 6.3 -18.6°
Reaches altitude 10° 11:43:03 10° 353° (N) 1,709 5.2 -18.2°
Enters shadow 11:45:01 25° 329° (NNW) 1,037 3.9 -17.8°
